COSMOS 2527 (756)

Last updated on Thu Nov 21 2024 00:03:12 GMT+0000 (Coordinated Universal Time)

1 43508U 18053A 24325.17867857 .00000019 00000+0 00000+0 0 9990 2 43508 65.2752 93.1001 0008299 218.4792 141.4451 2.13102266 50046
UTC large
Height (km)
Speed (km/s)
/
Latitude / Longitude
Inclination (degrees)
Orbital Period (minutes)
Azimuth
Elevation
Range (km)
Doppler Factor

Next 0 passes for location: London (51.5072 / 0.1276)

Sorry there are no passes over London.